Time,TemperatureF,DewpointF,PressureIn,WindDirection,WindDirectionDegrees,WindSpeedMPH,WindSpeedGustMPH,Humidity,HourlyPrecipIn,Conditions,Clouds,dailyrainin,SoftwareType,DateUTC
2013-02-16 00:02:00,27.0,25.0,29.96,NW,322,0.0,0.0,92,0.00,,,0.00,,2013-02-16 05:02:00,
2013-02-16 00:12:00,27.0,25.0,29.96,NW,322,0.0,0.0,92,0.00,,,0.00,,2013-02-16 05:12:00,
2013-02-16 00:22:00,26.0,24.0,29.96,NW,323,0.0,0.0,92,0.00,,,0.00,,2013-02-16 05:22:00,
2013-02-16 00:32:00,26.0,24.0,29.96,NW,322,0.0,0.0,92,0.00,,,0.00,,2013-02-16 05:32:00,
2013-02-16 00:42:00,26.0,24.0,29.96,NW,322,0.0,0.0,92,0.00,,,0.00,,2013-02-16 05:42:00,
2013-02-16 00:52:00,26.0,25.0,29.96,NW,322,0.0,0.0,94,0.00,,,0.00,,2013-02-16 05:52:00,
2013-02-16 01:02:00,27.0,26.0,29.97,NW,322,0.0,0.0,94,0.00,,,0.00,,2013-02-16 06:02:00,
2013-02-16 01:11:00,27.0,26.0,29.97,NW,322,0.0,0.0,94,0.00,,,0.00,,2013-02-16 06:11:00,
2013-02-16 01:22:00,28.0,26.0,29.96,NW,322,0.0,0.0,93,0.00,,,0.00,,2013-02-16 06:22:00,
2013-02-16 01:32:00,28.0,26.0,29.96,NW,322,0.0,0.0,92,0.00,,,0.00,,2013-02-16 06:32:00,
2013-02-16 01:42:00,28.0,26.0,29.96,NW,322,0.0,0.0,92,0.00,,,0.00,,2013-02-16 06:42:00,
2013-02-16 01:52:00,29.0,27.0,29.96,NW,321,0.0,0.0,92,0.00,,,0.00,,2013-02-16 06:52:00,
2013-02-16 02:02:00,29.0,27.0,29.96,NW,322,0.0,0.0,91,0.00,,,0.00,,2013-02-16 07:02:00,
2013-02-16 02:11:00,29.0,27.0,29.96,NW,322,0.0,0.0,91,0.00,,,0.00,,2013-02-16 07:11:00,
2013-02-16 02:21:00,29.0,26.0,29.96,NW,321,0.0,0.0,90,0.00,,,0.00,,2013-02-16 07:21:00,
2013-02-16 02:32:00,29.0,26.0,29.96,NW,321,0.0,0.0,90,0.00,,,0.00,,2013-02-16 07:32:00,
2013-02-16 02:42:00,29.0,26.0,29.96,NW,321,0.0,0.0,90,0.00,,,0.00,,2013-02-16 07:42:00,
2013-02-16 02:53:00,30.0,27.0,29.97,NW,322,0.0,0.0,88,0.00,,,0.00,,2013-02-16 07:53:00,
2013-02-16 03:01:00,30.0,27.0,29.97,NW,321,0.0,0.0,87,0.00,,,0.00,,2013-02-16 08:01:00,
2013-02-16 03:11:00,30.0,27.0,29.97,NW,321,0.0,0.0,87,0.00,,,0.00,,2013-02-16 08:11:00,
2013-02-16 03:21:00,31.0,27.0,29.95,NW,305,1.0,2.0,86,0.00,,,0.00,,2013-02-16 08:21:00,
2013-02-16 03:31:00,32.0,27.0,29.96,WNW,294,1.0,4.0,83,0.00,,,0.00,,2013-02-16 08:31:00,
2013-02-16 03:42:00,32.0,27.0,29.96,WNW,294,1.0,4.0,83,0.00,,,0.00,,2013-02-16 08:42:00,
2013-02-16 03:52:00,33.0,29.0,29.96,NW,325,2.0,8.0,85,0.00,,,0.00,,2013-02-16 08:52:00,
2013-02-16 04:02:00,33.0,30.0,29.97,NW,325,2.0,4.0,87,0.00,,,0.00,,2013-02-16 09:02:00,
2013-02-16 04:11:00,33.0,30.0,29.97,NW,325,2.0,4.0,87,0.00,,,0.00,,2013-02-16 09:11:00,
2013-02-16 04:21:00,32.0,30.0,29.97,WNW,290,1.0,4.0,92,0.00,,,0.00,,2013-02-16 09:21:00,
2013-02-16 04:32:00,32.0,30.0,29.97,WNW,297,1.0,3.0,93,0.00,,,0.00,,2013-02-16 09:32:00,
2013-02-16 04:42:00,32.0,30.0,29.97,WNW,297,1.0,3.0,93,0.00,,,0.00,,2013-02-16 09:42:00,
2013-02-16 04:52:00,32.0,31.0,29.97,WNW,294,0.0,1.0,95,0.00,,,0.00,,2013-02-16 09:52:00,
2013-02-16 05:01:00,32.0,31.0,29.96,East,92,1.0,2.0,95,0.00,,,0.00,,2013-02-16 10:01:00,
2013-02-16 05:11:00,32.0,31.0,29.96,East,92,1.0,2.0,95,0.00,,,0.00,,2013-02-16 10:11:00,
2013-02-16 05:21:00,31.0,30.0,29.96,West,279,0.0,2.0,95,0.00,,,0.00,,2013-02-16 10:21:00,
2013-02-16 05:32:00,31.0,30.0,29.96,NW,304,0.0,1.0,95,0.00,,,0.00,,2013-02-16 10:32:00,
2013-02-16 05:42:00,31.0,30.0,29.96,NW,304,0.0,1.0,95,0.00,,,0.00,,2013-02-16 10:42:00,
2013-02-16 05:52:00,31.0,30.0,29.97,West,280,0.0,1.0,96,0.00,,,0.00,,2013-02-16 10:52:00,
2013-02-16 06:02:00,31.0,30.0,29.96,WNW,287,0.0,0.0,96,0.00,,,0.00,,2013-02-16 11:02:00,
2013-02-16 06:11:00,31.0,30.0,29.96,WNW,287,0.0,0.0,96,0.00,,,0.00,,2013-02-16 11:11:00,
2013-02-16 06:22:00,31.0,30.0,29.96,WNW,290,0.0,1.0,96,0.00,,,0.00,,2013-02-16 11:22:00,
2013-02-16 06:32:00,31.0,30.0,29.96,WNW,287,0.0,0.0,96,0.00,,,0.00,,2013-02-16 11:32:00,
2013-02-16 06:42:00,31.0,30.0,29.96,WNW,287,0.0,0.0,96,0.00,,,0.00,,2013-02-16 11:42:00,
2013-02-16 06:52:00,31.0,30.0,29.96,West,276,0.0,0.0,96,0.00,,,0.00,,2013-02-16 11:52:00,
2013-02-16 07:02:00,31.0,30.0,29.96,West,276,0.0,0.0,96,0.00,,,0.00,,2013-02-16 12:02:00,
2013-02-16 07:12:00,31.0,30.0,29.96,West,276,0.0,0.0,96,0.00,,,0.00,,2013-02-16 12:12:00,
2013-02-16 07:22:00,31.0,30.0,29.96,West,280,0.0,0.0,96,0.00,,,0.00,,2013-02-16 12:22:00,
2013-02-16 07:32:00,31.0,30.0,29.95,West,280,0.0,0.0,96,0.00,,,0.00,,2013-02-16 12:32:00,
2013-02-16 07:42:00,31.0,30.0,29.95,West,280,0.0,0.0,96,0.00,,,0.00,,2013-02-16 12:42:00,
2013-02-16 07:52:00,31.0,30.0,29.96,West,281,0.0,0.0,96,0.00,,,0.00,,2013-02-16 12:52:00,
2013-02-16 08:02:00,31.0,30.0,29.96,WNW,295,0.0,1.0,96,0.00,,,0.00,,2013-02-16 13:02:00,
2013-02-16 08:12:00,31.0,30.0,29.96,WNW,295,0.0,1.0,96,0.00,,,0.00,,2013-02-16 13:12:00,
2013-02-16 08:22:00,31.0,30.0,29.96,NNW,342,0.0,1.0,96,0.00,,,0.00,,2013-02-16 13:22:00,
2013-02-16 08:32:00,31.0,30.0,29.96,WNW,293,0.0,1.0,96,0.00,,,0.00,,2013-02-16 13:32:00,
2013-02-16 08:41:00,31.0,30.0,29.96,WNW,293,0.0,1.0,96,0.00,,,0.00,,2013-02-16 13:41:00,
2013-02-16 08:52:00,32.0,31.0,29.96,West,281,0.0,0.0,96,0.00,,,0.00,,2013-02-16 13:52:00,
2013-02-16 09:01:00,32.0,31.0,29.97,WNW,284,0.0,1.0,96,0.00,,,0.00,,2013-02-16 14:01:00,
2013-02-16 09:11:00,32.0,31.0,29.97,WNW,284,0.0,1.0,96,0.00,,,0.00,,2013-02-16 14:11:00,
2013-02-16 09:21:00,32.0,31.0,29.96,West,281,0.0,1.0,95,0.00,,,0.00,,2013-02-16 14:21:00,
2013-02-16 09:32:00,32.0,31.0,29.96,WNW,283,0.0,1.0,95,0.00,,,0.00,,2013-02-16 14:32:00,
2013-02-16 09:42:00,32.0,31.0,29.96,WNW,283,0.0,1.0,95,0.00,,,0.00,,2013-02-16 14:42:00,
2013-02-16 09:52:00,33.0,31.0,29.95,WNW,294,0.0,1.0,94,0.00,,,0.00,,2013-02-16 14:52:00,
2013-02-16 10:02:00,33.0,31.0,29.95,WNW,301,0.0,1.0,94,0.00,,,0.00,,2013-02-16 15:02:00,
2013-02-16 10:11:00,33.0,31.0,29.95,WNW,301,0.0,1.0,94,0.00,,,0.00,,2013-02-16 15:11:00,
2013-02-16 10:22:00,34.0,32.0,29.94,WNW,290,2.0,5.0,91,0.00,,,0.00,,2013-02-16 15:22:00,
2013-02-16 10:32:00,34.0,32.0,29.94,NW,325,0.0,3.0,92,0.00,,,0.00,,2013-02-16 15:32:00,
2013-02-16 10:42:00,34.0,32.0,29.94,NW,325,0.0,3.0,92,0.00,,,0.00,,2013-02-16 15:42:00,
2013-02-16 10:52:00,35.0,32.0,29.94,NW,326,1.0,2.0,87,0.00,,,0.00,,2013-02-16 15:52:00,
2013-02-16 11:01:00,35.0,31.0,29.94,WNW,292,1.0,3.0,86,0.00,,,0.00,,2013-02-16 16:01:00,
2013-02-16 11:11:00,35.0,31.0,29.94,WNW,292,1.0,3.0,86,0.00,,,0.00,,2013-02-16 16:11:00,
2013-02-16 11:21:00,36.0,31.0,29.94,West,277,1.0,5.0,82,0.00,,,0.00,,2013-02-16 16:21:00,
2013-02-16 11:32:00,36.0,30.0,29.94,NW,318,2.0,4.0,80,0.00,,,0.00,,2013-02-16 16:32:00,
2013-02-16 11:42:00,36.0,30.0,29.94,NW,318,2.0,4.0,80,0.00,,,0.00,,2013-02-16 16:42:00,
2013-02-16 11:52:00,37.0,31.0,29.93,WNW,297,0.0,3.0,78,0.01,,,0.01,,2013-02-16 16:52:00,
2013-02-16 12:01:00,37.0,30.0,29.93,West,281,2.0,3.0,77,0.01,,,0.01,,2013-02-16 17:01:00,
2013-02-16 12:11:00,37.0,30.0,29.93,West,281,2.0,3.0,77,0.01,,,0.01,,2013-02-16 17:11:00,
2013-02-16 12:22:00,37.0,30.0,29.92,NW,324,1.0,3.0,77,0.02,,,0.02,,2013-02-16 17:22:00,
2013-02-16 12:32:00,37.0,30.0,29.91,WNW,297,1.0,3.0,75,0.02,,,0.02,,2013-02-16 17:32:00,
2013-02-16 12:42:00,37.0,30.0,29.91,WNW,297,1.0,3.0,75,0.02,,,0.02,,2013-02-16 17:42:00,
2013-02-16 12:52:00,37.0,29.0,29.91,WNW,291,1.0,2.0,73,0.02,,,0.03,,2013-02-16 17:52:00,
2013-02-16 13:02:00,38.0,29.0,29.90,WNW,299,1.0,2.0,71,0.03,,,0.04,,2013-02-16 18:02:00,
2013-02-16 13:11:00,38.0,28.0,29.89,WNW,302,1.0,2.0,68,0.03,,,0.05,,2013-02-16 18:11:00,
2013-02-16 13:21:00,38.0,28.0,29.89,WNW,302,1.0,2.0,68,0.03,,,0.05,,2013-02-16 18:21:00,
2013-02-16 13:33:00,38.0,28.0,29.89,West,263,1.0,4.0,66,0.03,,,0.05,,2013-02-16 18:33:00,
2013-02-16 13:42:00,38.0,28.0,29.89,West,263,1.0,4.0,66,0.03,,,0.05,,2013-02-16 18:42:00,
2013-02-16 13:52:00,38.0,27.0,29.88,West,269,2.0,3.0,65,0.03,,,0.06,,2013-02-16 18:52:00,
2013-02-16 14:02:00,39.0,27.0,29.88,WNW,284,0.0,1.0,63,0.02,,,0.06,,2013-02-16 19:02:00,
2013-02-16 14:11:00,39.0,27.0,29.88,WNW,284,0.0,1.0,63,0.02,,,0.06,,2013-02-16 19:11:00,
2013-02-16 14:22:00,39.0,27.0,29.88,WNW,302,1.0,3.0,62,0.01,,,0.06,,2013-02-16 19:22:00,
2013-02-16 14:32:00,39.0,26.0,29.88,West,274,0.0,2.0,60,0.02,,,0.07,,2013-02-16 19:32:00,
2013-02-16 14:42:00,39.0,26.0,29.88,West,274,0.0,2.0,60,0.02,,,0.07,,2013-02-16 19:42:00,
2013-02-16 14:52:00,39.0,25.0,29.87,WNW,298,1.0,3.0,58,0.01,,,0.07,,2013-02-16 19:52:00,
2013-02-16 15:01:00,39.0,25.0,29.87,West,274,1.0,5.0,58,0.01,,,0.07,,2013-02-16 20:01:00,
2013-02-16 15:11:00,39.0,26.0,29.87,WNW,291,0.0,3.0,59,0.01,,,0.07,,2013-02-16 20:11:00,
2013-02-16 15:22:00,39.0,26.0,29.87,WNW,291,0.0,3.0,59,0.01,,,0.07,,2013-02-16 20:22:00,
2013-02-16 15:32:00,40.0,26.0,29.86,WNW,291,0.0,1.0,56,0.00,,,0.07,,2013-02-16 20:32:00,
2013-02-16 15:42:00,40.0,26.0,29.86,WNW,291,0.0,1.0,56,0.00,,,0.07,,2013-02-16 20:42:00,
2013-02-16 15:52:00,39.0,25.0,29.86,NW,316,1.0,3.0,56,0.00,,,0.07,,2013-02-16 20:52:00,
2013-02-16 16:02:00,39.0,24.0,29.85,WNW,298,2.0,3.0,55,0.00,,,0.07,,2013-02-16 21:02:00,
2013-02-16 16:11:00,39.0,24.0,29.85,WNW,298,2.0,3.0,55,0.00,,,0.07,,2013-02-16 21:11:00,
2013-02-16 16:21:00,38.0,24.0,29.85,NW,320,1.0,5.0,57,0.00,,,0.07,,2013-02-16 21:21:00,
2013-02-16 16:32:00,38.0,25.0,29.85,NNW,328,1.0,8.0,58,0.00,,,0.07,,2013-02-16 21:32:00,
2013-02-16 16:42:00,38.0,25.0,29.85,NNW,328,1.0,8.0,58,0.00,,,0.07,,2013-02-16 21:42:00,
2013-02-16 16:52:00,38.0,25.0,29.85,WNW,302,1.0,5.0,59,0.00,,,0.07,,2013-02-16 21:52:00,
2013-02-16 17:01:00,37.0,24.0,29.84,West,278,1.0,6.0,60,0.00,,,0.07,,2013-02-16 22:01:00,
2013-02-16 17:11:00,37.0,24.0,29.84,West,278,1.0,6.0,60,0.00,,,0.07,,2013-02-16 22:11:00,
2013-02-16 17:21:00,36.0,23.0,29.84,West,279,1.0,4.0,59,0.00,,,0.07,,2013-02-16 22:21:00,
2013-02-16 17:32:00,36.0,23.0,29.84,WNW,302,2.0,8.0,58,0.00,,,0.07,,2013-02-16 22:32:00,
2013-02-16 17:42:00,36.0,23.0,29.84,WNW,302,2.0,8.0,58,0.00,,,0.07,,2013-02-16 22:42:00,
2013-02-16 17:52:00,35.0,21.0,29.85,NW,311,2.0,6.0,57,0.00,,,0.07,,2013-02-16 22:52:00,
2013-02-16 18:02:00,35.0,22.0,29.85,NNW,345,1.0,5.0,59,0.00,,,0.07,,2013-02-16 23:02:00,
2013-02-16 18:11:00,35.0,22.0,29.85,NNW,345,1.0,5.0,59,0.00,,,0.07,,2013-02-16 23:11:00,
2013-02-16 18:21:00,35.0,23.0,29.86,NW,315,2.0,7.0,61,0.00,,,0.07,,2013-02-16 23:21:00,
2013-02-16 18:32:00,34.0,21.0,29.87,WNW,302,3.0,5.0,59,0.00,,,0.07,,2013-02-16 23:32:00,
2013-02-16 18:42:00,34.0,21.0,29.87,WNW,302,3.0,5.0,59,0.00,,,0.07,,2013-02-16 23:42:00,
2013-02-16 18:52:00,34.0,21.0,29.86,WNW,294,3.0,5.0,59,0.00,,,0.07,,2013-02-16 23:52:00,
2013-02-16 19:02:00,34.0,21.0,29.85,WNW,288,3.0,6.0,59,0.00,,,0.07,,2013-02-17 00:02:00,
2013-02-16 19:12:00,34.0,21.0,29.85,WNW,288,3.0,6.0,59,0.00,,,0.07,,2013-02-17 00:12:00,
2013-02-16 19:22:00,33.0,20.0,29.85,WNW,290,3.0,5.0,58,0.00,,,0.07,,2013-02-17 00:22:00,
2013-02-16 19:32:00,33.0,21.0,29.85,WNW,302,2.0,7.0,60,0.00,,,0.07,,2013-02-17 00:32:00,
2013-02-16 19:42:00,33.0,21.0,29.85,WNW,302,2.0,7.0,60,0.00,,,0.07,,2013-02-17 00:42:00,
2013-02-16 19:52:00,33.0,19.0,29.85,WNW,290,2.0,6.0,56,0.00,,,0.07,,2013-02-17 00:52:00,
2013-02-16 20:01:00,33.0,19.0,29.84,WNW,296,4.0,8.0,55,0.00,,,0.07,,2013-02-17 01:01:00,
2013-02-16 20:11:00,33.0,19.0,29.84,WNW,296,4.0,8.0,55,0.00,,,0.07,,2013-02-17 01:11:00,
2013-02-16 20:21:00,32.0,19.0,29.83,WNW,293,2.0,6.0,57,0.00,,,0.07,,2013-02-17 01:21:00,
2013-02-16 20:32:00,32.0,19.0,29.84,WNW,294,2.0,7.0,57,0.00,,,0.07,,2013-02-17 01:32:00,
2013-02-16 20:41:00,32.0,19.0,29.84,WNW,294,2.0,7.0,57,0.00,,,0.07,,2013-02-17 01:41:00,
2013-02-16 20:52:00,32.0,19.0,29.83,NNW,340,2.0,9.0,57,0.00,,,0.07,,2013-02-17 01:52:00,
2013-02-16 21:01:00,31.0,18.0,29.83,NNW,328,2.0,6.0,57,0.00,,,0.07,,2013-02-17 02:01:00,
2013-02-16 21:11:00,31.0,18.0,29.83,NNW,328,2.0,6.0,57,0.00,,,0.07,,2013-02-17 02:11:00,
2013-02-16 21:21:00,31.0,18.0,29.82,NW,307,4.0,8.0,57,0.00,,,0.07,,2013-02-17 02:21:00,
2013-02-16 21:32:00,31.0,18.0,29.82,NW,311,2.0,11.0,57,0.00,,,0.07,,2013-02-17 02:32:00,
2013-02-16 21:42:00,31.0,18.0,29.82,NW,311,2.0,11.0,57,0.00,,,0.07,,2013-02-17 02:42:00,
2013-02-16 21:52:00,30.0,17.0,29.82,NNW,332,3.0,7.0,57,0.00,,,0.07,,2013-02-17 02:52:00,
2013-02-16 22:02:00,30.0,17.0,29.82,WNW,296,2.0,9.0,57,0.00,,,0.07,,2013-02-17 03:02:00,
2013-02-16 22:11:00,30.0,17.0,29.82,WNW,296,2.0,9.0,57,0.00,,,0.07,,2013-02-17 03:11:00,
2013-02-16 22:21:00,30.0,17.0,29.81,NW,309,2.0,6.0,57,0.00,,,0.07,,2013-02-17 03:21:00,
2013-02-16 22:32:00,30.0,17.0,29.82,WNW,296,3.0,5.0,59,0.00,,,0.07,,2013-02-17 03:32:00,
2013-02-16 22:42:00,30.0,17.0,29.82,WNW,296,3.0,5.0,59,0.00,,,0.07,,2013-02-17 03:42:00,
2013-02-16 22:52:00,29.0,16.0,29.80,WNW,285,3.0,7.0,57,0.00,,,0.07,,2013-02-17 03:52:00,
2013-02-16 23:01:00,29.0,16.0,29.80,NW,326,3.0,6.0,59,0.00,,,0.07,,2013-02-17 04:01:00,
2013-02-16 23:11:00,29.0,16.0,29.80,NW,326,3.0,6.0,59,0.00,,,0.07,,2013-02-17 04:11:00,
2013-02-16 23:21:00,29.0,17.0,29.78,NW,321,2.0,4.0,61,0.00,,,0.07,,2013-02-17 04:21:00,
2013-02-16 23:32:00,29.0,17.0,29.77,West,279,3.0,6.0,61,0.00,,,0.07,,2013-02-17 04:32:00,
2013-02-16 23:42:00,29.0,17.0,29.77,West,279,3.0,6.0,61,0.00,,,0.07,,2013-02-17 04:42:00,
2013-02-16 23:52:00,28.0,17.0,29.76,NW,308,2.0,9.0,63,0.00,,,0.07,,2013-02-17 04:52:00,